Back to catalog

STARLINK-5871

AliveCommunicationsVLEO
NORAD 55919·PAYLOAD·🇺🇸 United States

Launched Mar 17, 2023 from Vandenberg Space Force Base

Loading…

Next Passes (next 24 hours)

TLE

FreshSource: CelesTrak SupGP

Epoch: Sep 14, 2026, 13:44 UTC

1 55919C 23037F   26257.57270833  .00015523  00000+0  13012-2 0  2572
2 55919  70.0017 188.2649 0003098 268.1364 276.0873 14.98312636    11

Track STARLINK-5871 in real time with AllMySat

Download on the App Store